SCP
0 0 0 0 0 0 0 0 0 0 0 0 0 0 0 0 1 1 1 1 1 1 1 1 1 1 1 1 1 1 1 1 1 0 0 0 0 0 0 0 0 0 0
0 0 0 0 0 0 0 0 0 0 0 0 0 0 0 0 1 1 1 1 1 1 1 1 1 1 1 1 1 1 1 1 1 0 0 0 0 0 0 0 0 0 0
0 0 0 0 0 0 0 0 0 0 0 0 0 0 0 0 1 1 1 1 1 1 1 1 1 2 2 1 1 1 1 1 1 0 0 0 0 0 0 0 0 0 0
0 0 0 0 0 0 0 0 0 0 0 0 0 0 0 0 1 1 1 1 1 1 1 1 1 2 2 2 1 1 1 1 1 1 0 0 0 0 0 0 0 0 0
0 0 0 0 0 0 0 0 0 0 0 0 0 0 0 0 1 1 1 1 1 1 1 1 1 1 2 2 2 1 1 1 1 1 1 0 0 0 0 0 0 0 0
0 0 0 0 0 0 0 0 0 0 0 0 0 0 0 0 1 1 1 1 1 1 1 1 1 1 1 2 2 1 1 1 1 1 1 0 0 0 0 0 0 0 0
0 0 0 0 0 0 0 0 0 0 0 0 0 0 0 0 0 1 1 1 1 1 1 1 1 1 1 1 2 2 1 1 1 1 1 1 1 0 0 0 0 0 0
0 0 0 0 0 0 0 0 0 0 0 0 0 0 0 0 0 0 1 1 1 1 1 1 1 1 1 1 1 2 1 1 1 1 1 1 1 1 1 0 0 0 0
0 0 0 0 0 0 0 0 0 0 0 0 0 0 0 0 0 0 0 0 1 1 1 1 1 1 1 1 1 1 1 1 1 1 1 1 1 1 1 1 1 0 0
0 0 0 0 0 0 0 0 0 0 0 0 0 0 0 0 0 0 0 0 0 0 0 1 1 1 1 1 1 1 1 1 1 1 1 1 1 1 1 1 1 1 1
0 0 0 0 0 0 0 0 0 0 0 0 0 0 0 0 0 0 0 0 0 0 0 0 1 1 1 1 1 0 0 1 1 1 1 1 1 1 1 1 1 1 1
0 0 0 0 0 0 0 0 0 0 0 0 0 0 0 0 0 0 0 0 0 0 0 0 0 1 1 1 1 0 0 0 1 1 1 1 1 0 0 0 1 1 1
0 0 0 0 0 0 0 0 0 0 0 0 0 0 0 0 0 0 0 0 0 0 0 0 0 1 1 1 0 0 0 0 0 0 0 0 0 0 0 0 0 0 0
0 0 0 0 0 0 0 0 0 0 0 0 0 0 0 0 0 0 0 0 0 0 0 0 0 1 1 1 0 0 0 0 0 0 0 0 0 0 0 0 0 0 0
0 0 0 0 0 0 0 0 0 0 0 0 0 0 0 0 0 0 0 0 0 0 0 0 0 0 0 0 0 0 0 0 0 0 0 0 0 0 0 0 0 0 0
0 0 0 0 0 0 0 0 0 0 0 0 0 0 0 0 0 0 0 0 0 0 0 0 0 0 0 0 0 0 0 0 0 0 0 0 0 0 0 0 0 0 0
0 0 0 0 0 0 0 0 0 0 0 0 0 0 0 0 0 0 0 0 0 0 0 0 0 0 0 0 0 0 0 0 0 0 0 0 0 0 0 0 0 0 0
0 0 0 0 0 0 0 0 0 0 0 0 0 0 0 0 0 0 0 0 0 0 0 0 0 0 0 0 0 0 0 0 0 0 0 0 0 0 0 0 0 0 0
0 0 0 0 0 0 0 0 0 0 0 0 0 0 0 0 0 0 0 0 0 0 0 0 0 0 0 0 0 0 0 0 0 0 0 0 0 0 0 0 0 0 0
0 0 0 0 0 0 0 0 0 0 0 0 0 0 0 0 0 0 0 0 0 0 0 0 0 0 0 0 0 0 0 0 0 0 0 0 0 0 0 0 0 0 0
0 0 0 0 0 0 0 0 0 0 0 0 0 0 0 0 0 0 0 0 0 0 0 0 0 0 0 0 0 0 0 0 0 0 0 0 0 0 0 0 0 0 0
0 0 0 0 0 0 0 0 0 0 0 0 0 0 0 0 0 0 0 0 0 0 0 0 0 0 0 0 0 0 0 0 0 0 0 0 0 0 0 0 0 0 0
0 0 0 0 0 0 0 0 0 0 0 0 0 0 0 0 0 0 0 0 0 0 0 0 0 0 0 0 0 0 0 0 0 0 0 0 0 0 0 0 0 0 0
0 0 0 0 0 0 0 0 0 0 0 0 0 0 0 0 0 0 0 0 0 0 0 0 0 0 0 0 0 0 0 0 0 0 0 0 0 0 0 0 0 0 0
0 0 0 0 0 0 0 0 0 0 0 0 0 0 0 0 0 0 0 0 0 0 0 0 0 0 0 0 0 0 0 0 0 0 0 0 0 0 0 0 0 0 0
0 0 0 0 0 0 0 0 0 0 0 0 0 0 0 0 0 0 0 0 0 0 0 0 0 0 0 0 0 0 0 0 0 0 0 0 0 0 0 0 0 0 0
Wind_Speed
2 3 4 5 6 6 7 6 6 6 5 3 3 3 4 4 4 4 4 5 4 4 4 4 4 5 5 6 7 5 6 5 3 3 3 4 5 6 6 6 6 7 8
3 4 5 5 5 6 7 7 6 6 5 4 3 3 3 3 3 4 4 4 4 4 4 4 4 5 5 6 6 5 4 4 4 3 2 3 3 5 7 6 7 8 7
3 4 5 5 5 6 7 7 7 7 6 5 3 3 2 2 3 4 4 4 4 4 4 5 4 5 5 5 6 6 7 5 4 4 4 4 5 3 3 7 7 7 7
2 3 4 5 5 6 6 6 7 7 6 5 3 3 3 3 4 4 4 5 5 4 4 4 5 5 4 5 6 6 5 5 5 4 4 3 2 3 3 3 5 7 8
2 3 4 4 5 5 6 6 6 6 6 6 4 3 3 3 3 3 4 5 4 4 4 4 4 4 4 5 5 5 5 5 5 4 3 4 3 3 3 4 3 3 5
2 3 4 4 4 5 5 6 6 6 7 6 5 4 4 5 5 5 4 4 3 3 4 4 3 3 3 4 4 5 5 5 5 4 4 3 3 4 5 6 5 5 4
2 3 4 4 5 5 5 6 6 7 7 6 5 5 5 4 4 4 4 4 4 4 4 4 3 3 3 3 2 3 3 4 4 5 4 4 4 3 4 5 5 5 4
2 2 3 3 4 4 4 5 6 6 7 6 5 5 5 3 3 4 4 4 4 4 5 4 4 3 3 3 2 2 2 1 3 4 3 3 3 3 3 3 4 5 4
3 2 3 3 3 3 3 4 4 5 6 6 5 5 5 4 4 4 4 3 4 4 5 4 3 3 3 2 2 1 1 1 2 2 2 2 2 2 2 2 3 4 6
3 3 2 2 3 3 3 3 3 4 5 5 5 5 5 5 4 4 5 5 5 5 5 5 4 4 4 3 2 1 1 0 1 1 1 2 2 2 2 2 2 3 5
4 3 2 2 2 2 2 3 3 4 5 5 5 5 5 5 5 5 5 5 5 6 6 5 5 4 5 4 2 2 2 2 2 2 1 1 2 2 2 2 2 2 3
3 3 2 1 1 2 2 3 3 3 4 4 4 5 5 5 5 5 6 5 6 6 6 6 5 5 5 5 4 3 3 3 3 3 2 2 2 2 2 2 2 2 3
3 2 2 1 1 1 1 2 2 2 3 3 4 5 5 6 6 6 6 6 5 5 6 6 6 6 6 5 5 4 4 4 3 3 3 3 2 2 2 2 2 2 3
4 3 3 2 2 2 1 1 2 2 2 2 3 4 4 5 5 5 6 6 5 6 6 6 6 6 5 5 5 5 4 4 4 3 3 3 3 3 3 2 3 3 3
4 4 4 3 2 2 1 0 1 1 2 3 3 4 4 4 4 5 5 6 6 6 6 6 7 6 5 6 6 5 4 4 3 3 3 4 5 6 4 3 3 3 3
6 5 4 4 3 3 2 1 0 0 1 2 3 3 3 4 4 4 5 5 6 6 6 6 6 7 6 10 10 7 4 4 3 4 4 4 4 6 7 7 7 6 4
6 5 5 5 4 4 3 3 2 1 1 1 2 2 3 3 4 4 5 5 5 5 6 6 6 6 7 11 11 10 5 5 4 4 4 4 5 6 4 6 7 7 9
6 6 5 4 3 3 3 3 2 2 1 1 1 2 2 3 3 4 4 4 3 4 4 5 5 5 7 11 11 11 6 5 5 5 5 4 5 6 5 4 4 4 5
6 5 5 4 4 4 4 4 3 2 1 1 1 1 1 2 3 3 3 3 3 3 3 4 5 5 7 11 10 9 4 4 5 5 5 5 4 9 11 6 5 5 5
4 4 4 3 4 4 5 5 4 3 2 2 1 0 1 1 1 2 2 2 2 2 3 4 4 4 5 10 11 10 3 3 4 4 5 8 9 11 11 6 5 6 6
4 4 4 4 5 5 5 5 4 4 3 2 1 1 1 0 0 1 1 1 2 3 3 3 4 4 6 9 11 11 4 4 4 4 5 5 12 12 12 9 5 7 8
4 4 4 4 4 5 6 5 5 4 3 3 2 1 0 0 1 1 1 2 2 2 3 3 3 3 5 8 9 11 10 8 4 4 4 5 12 12 12 8 9 12 9
5 4 5 4 4 5 6 6 5 4 4 3 2 1 1 1 1 1 1 1 1 1 2 2 2 3 4 5 10 11 11 11 6 4 8 10 12 11 8 9 11 9 5
5 5 5 5 5 5 6 6 4 5 4 4 3 2 1 0 1 1 0 0 0 1 1 2 2 3 3 4 4 4 5 8 6 5 6 9 9 8 8 8 6 4 4
4 5 6 7 7 5 5 5 5 5 5 4 3 2 2 1 1 0 0 1 1 1 1 1 2 2 3 5 10 7 5 5 5 5 3 3 4 4 4 4 4 4 5
4 4 5 6 5 5 5 5 5 6 5 4 3 2 2 2 1 0 1 2 1 3 3 3 3 3 6 9 10 11 11 11 9 5 3 4 4 5 5 6 6 5 5
Wind_Direction
330 356 358 357 355 349 343 332 327 323 325 324 318 308 299 295 294 283 282 280 275 264 246 246 233 219 218 219 215 213 216 222 200 206 241 247 231 228 227 222 222 222 218
350 352 356 354 347 339 337 335 330 322 317 306 293 276 278 278 279 290 291 287 281 271 261 249 241 228 225 226 219 211 214 221 194 185 195 243 252 239 230 221 220 225 222
328 331 340 341 340 338 333 331 327 324 318 309 303 305 300 297 304 312 307 299 293 282 271 260 250 238 225 225 223 214 211 219 212 193 188 199 222 239 240 224 222 220 220
314 325 334 335 334 330 328 328 328 329 325 322 323 312 301 288 284 294 295 298 293 288 278 266 256 250 239 234 229 226 219 211 216 217 221 222 195 198 249 255 231 223 222
293 311 316 316 323 329 331 329 331 333 331 327 325 315 305 289 291 297 299 302 303 300 298 283 263 251 244 241 239 230 226 220 220 213 206 224 236 227 224 249 244 235 228
287 298 306 316 322 328 335 337 337 336 337 336 334 328 313 312 317 318 315 315 315 316 319 308 293 277 260 246 243 239 229 227 231 227 216 208 212 217 222 238 239 238 235
277 297 316 323 324 329 338 339 341 339 340 341 345 341 332 324 322 323 323 324 325 326 323 317 311 301 288 271 250 246 245 235 236 235 235 235 237 233 228 237 246 245 244
272 292 307 313 318 328 337 339 342 341 343 349 350 348 349 344 339 336 332 332 324 319 320 318 314 310 302 295 275 236 227 237 241 251 246 246 253 252 247 241 242 256 253
253 276 305 317 321 326 330 333 339 342 347 351 353 356 358 358 351 347 348 342 334 329 333 333 329 325 319 313 301 275 236 212 227 248 257 262 271 265 260 259 247 249 261
248 260 280 303 314 323 327 341 350 352 351 353 357 3 1 358 355 359 0 353 345 344 344 351 353 350 350 353 345 333 341 328 279 255 270 287 300 294 282 265 262 248 251
237 247 258 273 301 329 341 351 352 357 358 359 1 3 2 3 7 12 7 4 2 1 360 359 2 4 3 0 11 13 12 16 359 358 357 327 326 308 304 297 285 277 263
230 232 237 258 300 325 342 351 351 356 357 357 2 6 7 8 12 11 5 6 11 10 8 11 18 21 15 12 22 22 21 25 20 14 13 349 348 333 325 314 298 291 285
232 224 225 237 256 286 320 336 346 352 353 359 8 12 12 12 12 10 8 10 14 15 17 20 22 22 19 19 21 23 25 27 28 21 15 355 356 346 339 331 321 309 307
226 217 221 230 238 237 244 306 339 354 1 8 17 17 12 12 12 12 12 13 14 21 22 21 19 18 18 20 16 20 23 20 21 16 14 8 6 346 334 332 325 316 309
229 221 220 224 228 228 224 223 354 5 20 29 26 15 10 15 18 17 16 17 20 23 23 23 20 16 17 20 17 14 14 11 10 7 9 9 8 2 357 350 334 322 306
228 222 218 217 216 213 206 191 155 31 51 48 29 15 17 21 19 17 18 22 21 20 25 26 22 17 14 20 23 21 12 9 10 2 357 354 0 2 360 356 353 345 325
220 213 212 214 214 204 190 186 182 134 87 62 32 21 25 27 21 21 23 21 18 20 23 19 17 11 9 22 25 28 26 19 14 6 358 357 354 351 338 344 346 342 336
215 213 208 207 205 190 179 169 149 137 114 70 31 19 29 30 24 26 22 14 14 18 17 15 9 6 9 19 22 27 31 25 15 6 358 349 338 337 339 335 334 326 325
209 206 201 193 186 183 175 156 151 145 130 107 29 11 33 39 32 25 12 6 17 18 13 9 10 9 0 14 23 26 16 15 5 360 0 353 341 346 350 345 332 329 327
200 193 182 172 181 188 167 160 170 169 188 199 198 90 65 67 42 18 6 1 13 15 12 13 7 4 357 11 18 18 14 6 355 353 351 356 354 350 349 344 335 328 323
198 183 176 185 197 182 166 174 183 201 206 185 163 138 112 124 91 42 21 13 18 20 16 12 3 2 6 7 11 11 8 360 352 347 340 339 348 349 350 349 340 328 326
200 185 185 201 197 177 174 187 205 208 179 163 157 158 148 91 72 64 30 29 31 26 10 7 360 356 354 3 2 7 7 1 348 334 325 330 345 349 350 349 343 340 336
208 197 193 202 204 190 185 198 211 180 163 159 166 173 146 75 57 68 43 28 25 24 357 353 346 341 342 346 357 359 358 356 349 331 337 342 348 349 347 346 345 343 333
214 202 193 204 215 205 200 203 189 169 163 170 179 175 161 135 55 41 34 49 347 338 332 332 328 326 329 326 328 332 337 343 341 335 340 347 351 349 341 339 338 330 321
218 204 203 211 218 205 203 198 180 166 170 177 179 176 176 176 177 251 263 262 245 245 284 275 284 310 319 326 337 341 334 330 330 338 344 343 337 338 333 328 325 324 324
220 216 213 213 213 198 199 194 179 171 172 180 184 183 181 184 183 211 318 322 315 334 339 326 321 315 325 331 339 342 342 344 347 356 345 337 333 334 333 332 331 329 329